Time,TemperatureF,DewpointF,PressureIn,WindDirection,WindDirectionDegrees,WindSpeedMPH,WindSpeedGustMPH,Humidity,HourlyPrecipIn,Conditions,Clouds,dailyrainin,SoftwareType,DateUTC
2013-02-20 01:59:00,34.3,33.0,29.65,WSW,251,6.0,33.0,95,0.14,,,0.14,VWS V14.01,2013-02-20 09:59:00,
2013-02-20 02:29:00,33.4,32.1,29.65,West,277,13.0,27.0,95,0.11,,,0.15,VWS V14.01,2013-02-20 10:29:00,
2013-02-20 02:59:00,33.5,32.2,29.66,WNW,285,13.0,30.0,95,0.07,,,0.16,VWS V14.01,2013-02-20 10:59:00,
2013-02-20 03:29:00,33.4,32.1,29.65,West,278,16.0,31.0,95,0.04,,,0.18,VWS V14.01,2013-02-20 11:29:00,
2013-02-20 03:59:00,32.9,31.4,29.66,West,281,10.0,28.0,94,0.03,,,0.18,VWS V14.01,2013-02-20 11:59:00,
2013-02-20 04:29:00,32.7,30.9,29.67,WSW,249,12.0,26.0,93,0.02,,,0.18,VWS V14.01,2013-02-20 12:29:00,
2013-02-20 04:59:00,32.6,31.1,29.67,WSW,258,10.0,25.0,94,0.01,,,0.19,VWS V14.01,2013-02-20 12:59:00,
2013-02-20 05:29:00,32.3,30.8,29.67,WSW,237,9.0,26.0,94,0.01,,,0.19,VWS V14.01,2013-02-20 13:29:00,
2013-02-20 05:59:00,32.6,30.8,29.67,West,264,22.0,28.0,93,0.01,,,0.19,VWS V14.01,2013-02-20 13:59:00,
2013-02-20 06:29:00,32.6,31.1,29.67,WSW,255,16.0,26.0,94,0.00,,,0.19,VWS V14.01,2013-02-20 14:29:00,
2013-02-20 06:59:00,32.6,31.1,29.68,WSW,242,17.0,29.0,94,0.00,,,0.19,VWS V14.01,2013-02-20 14:59:00,
2013-02-20 07:29:00,32.4,30.9,29.69,WSW,257,7.0,24.0,94,0.01,,,0.20,VWS V14.01,2013-02-20 15:29:00,
2013-02-20 07:59:00,32.1,30.6,29.71,WNW,296,10.0,20.0,94,0.01,,,0.20,VWS V14.01,2013-02-20 15:59:00,
2013-02-20 08:29:00,31.2,29.7,29.73,West,265,0.0,21.0,94,0.01,,,0.20,VWS V14.01,2013-02-20 16:29:00,
2013-02-20 08:59:00,31.9,30.6,29.75,WNW,296,5.0,13.0,95,0.00,,,0.20,VWS V14.01,2013-02-20 16:59:00,
2013-02-20 09:29:00,32.8,31.3,29.76,WNW,290,7.0,14.0,94,0.00,,,0.20,VWS V14.01,2013-02-20 17:29:00,
2013-02-20 09:59:00,33.7,31.9,29.76,WNW,282,2.0,12.0,93,0.02,,,0.22,VWS V14.01,2013-02-20 17:59:00,
2013-02-20 10:29:00,35.3,32.9,29.78,West,270,7.0,13.0,91,0.03,,,0.23,VWS V14.01,2013-02-20 18:29:00,
2013-02-20 10:59:00,37.0,31.1,29.79,WNW,287,5.0,13.0,79,0.12,,,0.32,VWS V14.01,2013-02-20 18:59:00,
2013-02-20 11:29:00,36.0,30.4,29.81,NW,306,6.0,13.0,80,0.16,,,0.38,VWS V14.01,2013-02-20 19:29:00,
2013-02-20 11:59:00,36.8,31.8,29.81,SW,225,8.0,16.0,82,0.17,,,0.40,VWS V14.01,2013-02-20 19:59:00,
2013-02-20 12:29:00,37.8,30.6,29.82,NW,304,0.0,12.0,75,0.12,,,0.44,VWS V14.01,2013-02-20 20:29:00,
2013-02-20 12:59:00,38.0,28.4,29.82,WNW,298,6.0,13.0,68,0.09,,,0.47,VWS V14.01,2013-02-20 20:59:00,
2013-02-20 13:29:00,38.9,30.3,29.83,West,276,10.0,13.0,71,0.08,,,0.48,VWS V14.01,2013-02-20 21:29:00,
2013-02-20 13:59:00,39.7,30.7,29.82,NW,305,0.0,15.0,70,0.06,,,0.50,VWS V14.01,2013-02-20 21:59:00,
2013-02-20 14:29:00,40.0,31.4,29.83,WNW,291,4.0,13.0,71,0.05,,,0.52,VWS V14.01,2013-02-20 22:29:00,
2013-02-20 14:59:00,40.2,30.9,29.84,WNW,289,3.0,15.0,69,0.05,,,0.53,VWS V14.01,2013-02-20 22:59:00,
2013-02-20 15:29:00,39.5,31.6,29.85,West,278,6.0,12.0,73,0.04,,,0.54,VWS V14.01,2013-02-20 23:29:00,
2013-02-20 15:59:00,39.1,31.5,29.86,West,264,6.0,13.0,74,0.02,,,0.54,VWS V14.01,2013-02-20 23:59:00,
2013-02-20 16:29:00,39.1,32.2,29.88,SW,231,9.0,17.0,76,0.02,,,0.55,VWS V14.01,2013-02-21 00:29:00,
2013-02-20 16:59:00,39.1,32.5,29.89,West,260,8.0,17.0,77,0.01,,,0.55,VWS V14.01,2013-02-21 00:59:00,
2013-02-20 17:29:00,38.0,31.1,29.90,WNW,283,4.0,14.0,76,0.01,,,0.55,VWS V14.01,2013-02-21 01:29:00,
2013-02-20 17:59:00,36.5,30.6,29.91,WNW,284,1.0,11.0,79,0.00,,,0.55,VWS V14.01,2013-02-21 01:59:00,
2013-02-20 18:29:00,35.7,31.0,29.93,WNW,287,0.0,3.0,83,0.00,,,0.55,VWS V14.01,2013-02-21 02:29:00,
2013-02-20 18:59:00,36.1,32.0,29.94,WNW,283,2.0,8.0,85,0.00,,,0.55,VWS V14.01,2013-02-21 02:59:00,
2013-02-20 19:29:00,36.0,32.2,29.95,NW,310,3.0,6.0,86,0.00,,,0.55,VWS V14.01,2013-02-21 03:29:00,
2013-02-20 19:59:00,34.8,31.3,29.96,NW,310,0.0,4.0,87,0.00,,,0.55,VWS V14.01,2013-02-21 03:59:00,
2013-02-20 20:29:00,32.4,29.5,29.95,ENE,73,0.0,5.0,89,0.00,,,0.55,VWS V14.01,2013-02-21 04:29:00,
2013-02-20 20:59:00,31.6,29.0,29.97,ENE,73,0.0,3.0,90,0.00,,,0.55,VWS V14.01,2013-02-21 04:59:00,
2013-02-20 21:29:00,30.9,28.9,29.97,East,85,3.0,7.0,92,0.00,,,0.55,VWS V14.01,2013-02-21 05:29:00,
2013-02-20 21:59:00,30.5,28.2,29.97,East,85,0.0,6.0,91,0.00,,,0.55,VWS V14.01,2013-02-21 05:59:00,
2013-02-20 22:29:00,29.9,27.6,29.98,East,85,1.0,5.0,91,0.00,,,0.55,VWS V14.01,2013-02-21 06:29:00,
2013-02-20 22:59:00,29.5,27.2,29.98,ENE,76,0.0,6.0,91,0.00,,,0.55,VWS V14.01,2013-02-21 06:59:00,
2013-02-20 23:29:00,29.2,26.6,30.00,ENE,75,3.0,4.0,90,0.00,,,0.55,VWS V14.01,2013-02-21 07:29:00,
2013-02-20 23:59:00,28.6,26.3,30.00,ENE,78,3.0,5.0,91,0.00,,,0.00,VWS V14.01,2013-02-21 07:59:00,